Carbondale, IL

1:35 AM CDT on May 30, 2017 (GMT -0500)
Southern Illinois

Weather History for KMDH - August, 2014

Change the Weather History Date:

Thursday, August 28, 2014

  Actual Average Record
Temperature  
Mean Temperature 81 °F -  
Max Temperature 89 °F 87 °F 106 °F (1936)
Min Temperature 73 °F 62 °F 33 °F (1996)
Cooling Degree Days 16    
Growing Degree Days 31 (Base 50)    
Moisture  
Dew Point 71 °F    
Average Humidity 84    
Maximum Humidity 93    
Minimum Humidity 62    
Precipitation  
Precipitation 0.02 in - - ()
Sea Level Pressure  
Sea Level Pressure 30.00 in    
Wind  
Wind Speed 2 mph (East)    
Max Wind Speed 12 mph    
Max Gust Speed 21 mph    
Visibility 9 miles    
Events Rain , Thunderstorm    
Averages and records for this station are not official NWS values.
T = Trace of Precipitation, MM = Missing Value Source: NWS Daily Summary

Daily Weather History Graph

Daily Weather History Graph

Search for Another Location

Airport or City:

Trip Planner

Search our weather history database for the weather conditions in past years. The results will help you decide how hot, cold, wet, or windy it might be!

Date:

Astronomy

Aug. 28, 2014 Rise Set
Actual Time 6:23 AM CDT 7:32 PM CDT
Civil Twilight 5:56 AM CDT 7:59 PM CDT
Nautical Twilight 5:24 AM CDT 8:31 PM CDT
Astronomical Twilight 4:50 AM CDT 9:04 PM CDT
Moon 9:12 AM CDT (8/28) 9:00 PM CDT (8/28)
Length of Visible Light 14h 02m
Length of Day
13h 08m
Waxing Crescent, 9% of the Moon is Illuminated
Aug 28
Waxing Crescent
Sep 2
First Quarter
Sep 8
Full
Sep 15
Last Quarter
Sep 24
New

Hourly Weather History & Observations

Time (CDT) Temp. Heat Index Dew Point Humidity Pressure Visibility Wind Dir Wind Speed Gust Speed Precip Events Conditions
12:52 AM 73.0 °F - 70.0 °F 90% 30.04 in 10.0 mi Calm Calm - N/A   Clear
1:52 AM 73.0 °F - 70.0 °F 90% 30.03 in 9.0 mi Calm Calm - N/A   Clear
2:52 AM 73.0 °F - 70.0 °F 90% 30.03 in 8.0 mi Calm Calm - N/A   Clear
3:52 AM 73.0 °F - 71.1 °F 93% 30.02 in 9.0 mi Calm Calm - N/A   Clear
4:52 AM 73.0 °F - 71.1 °F 93% 30.02 in 8.0 mi Calm Calm - N/A   Clear
5:52 AM 73.0 °F - 70.0 °F 90% 30.03 in 9.0 mi Calm Calm - N/A   Clear
6:52 AM 73.0 °F - 70.0 °F 90% 30.04 in 8.0 mi Calm Calm - N/A   Partly Cloudy
7:52 AM 73.9 °F - 71.1 °F 91% 30.05 in 10.0 mi Calm Calm - N/A   Overcast
10:52 AM 84.0 °F 90.2 °F 73.0 °F 69% 30.03 in 10.0 mi Calm Calm - N/A   Clear
11:52 AM 87.1 °F 96.3 °F 75.0 °F 67% 30.02 in 9.0 mi Variable 3.5 mph - N/A   Clear
12:52 PM 89.6 °F 99.8 °F 75.2 °F 62% 30.00 in 9.0 mi East 4.6 mph - N/A Thunderstorm Thunderstorm
1:52 PM 82.9 °F 87.5 °F 71.1 °F 67% 29.99 in 10.0 mi South 11.5 mph - N/A Thunderstorm Thunderstorm
2:52 PM 78.1 °F - 70.0 °F 76% 29.98 in 8.0 mi Calm Calm - 0.00 in Rain , Thunderstorm Light Thunderstorms and Rain
3:52 PM 77.0 °F - 72.0 °F 84% 29.96 in 6.0 mi ENE 10.4 mph - 0.02 in Rain , Thunderstorm Light Thunderstorms and Rain
4:14 PM 78.1 °F - 72.0 °F 81% 29.97 in 8.0 mi ENE 10.4 mph - 0.00 in   Partly Cloudy
4:52 PM 78.1 °F - 72.0 °F 81% 29.98 in 9.0 mi East 9.2 mph - 0.00 in   Clear
5:52 PM 78.1 °F - 71.1 °F 79% 29.99 in 10.0 mi South 11.5 mph 20.7 mph N/A   Scattered Clouds
6:52 PM 75.0 °F - 70.0 °F 84% 29.97 in 10.0 mi ESE 3.5 mph - N/A   Scattered Clouds
7:52 PM 73.9 °F - 70.0 °F 87% 29.98 in 10.0 mi Calm Calm - 0.00 in   Mostly Cloudy
8:52 PM 73.9 °F - 70.0 °F 87% 29.99 in 8.0 mi NNE 3.5 mph - N/A   Clear
9:52 PM 73.0 °F - 71.1 °F 93% 29.98 in 7.0 mi Calm Calm - N/A   Clear
10:52 PM 73.0 °F - 71.1 °F 93% 29.99 in 6.0 mi East 4.6 mph - N/A   Clear
11:52 PM 73.0 °F - 70.0 °F 90% 29.99 in 6.0 mi Calm Calm - N/A   Clear